Погода Остров Хейса

Погода Остров Хейса : погода сейчас, прогноз погоды и архив. Всё, что Вы хотите узнать о погоде Остров Хейса!

Поиск расширенной информации на нашем сайте:

Другие новости

Новости СМИ2

Главная страница сайта

Новости сайта

02.10.2013

Напоминаем, что на нашем новом сайте вы можете получить высокодетализированные прогнозы погоды по пунктам России, СНГ и мира (включающие важные для авиации метеовеличины, такие как направление и скорость ветра, видимость, явления погоды, количество и форма облачности, нижняя и верхняя граница облачности), а также ознакомиться с разнообразными материалами по авиационной метеорологии и подборкой полезных ссылок на эту тему.

Сайт Метеоцентр.Азия посвящён разработке технологий оптимизации авиаметеорологического обслуживания, включая проектирование и перспективное создание нескольких автоматизированных авиаметеорологических систем:
- система выпуска высокодетальных прогностических карт явлений погоды для нижнего воздушного пространства по России и ближнему зарубежью;
- система верификации прогнозов TAF (выпускаемых синоптиками официальных АМСГ РФ и ближнего зарубежья) и AUTOTAF (выпускаемых сайтом Метеоцентр.Азия) - выявление ошибок, онлайн-сопоставление с фактической погодой METAR, автоматическое внесение коррективов в прогнозы при резком отклонении фактической погоды от прогноза, подсчёт оправдываемости прогнозов по элементам и в целом;
- система обработки, анализа и отображения авиаметеорологической информации для применения провайдерами метеорологической информации.

Рекомендуем: Свадебные арки в Киеве - http://flordekor.com.ua/index.php?p=9 Флордекор.

Погода Остров Хейса - сегодня

Время (UTC), дата Ветер
(°,м/с) 
Видим.   Явления Облачность Т
(°С)
Тd
(°С)
f(%) Тe
(°С)
Pmin
(гПа)
dP
(гПа)
Po
(мм)
O2
(г/м3)
Тmin Tmax R s Состояние
почвы
09 11.01.17 130 (ЮВ) 9{14}  2000 м  слаб. ливневой снег  10/10 330 м кучево-дожд. 
[Cb cap]
-9.9 -11 92 -17  990.3  -0.4  741  311           
12 11.01.17 130 (ЮВ) 7{14}  2000 м  слаб. ливневой снег  9/8 300 м кучево-дожд. 
[Cb cap]
-9.1 -9.9 94 -15  989.3  -1  740  309           
15 11.01.17 140 (ЮВ) 9{14}  20000 м  позёмок{ливн. осадки}  9/9 330 м 
[Sc]
-8.9 -9.7 94 -15  989.1  -0.1  740  309           
09 12.01.17 110 (В) 2000 м  слаб. ливневой снег  10/10 330 м кучево-дожд. 
[Cb cap]
-8.3 -8.9 95 -10  993.8  0.6  743  310           
12 12.01.17 150 (ЮВ) 11{17}  4000 м  метель{ливн. осадки}  9/9 500 м 
[Sc]
-7.3 -7.8 96 -14  994.1  0.3  743  309           
18 12.01.17 130 (ЮВ) 8{13}  2000 м  слаб. ливневой снег  9/9 360 м кучево-дожд. 
[Cb cap]
-6.2 -6.8 96 -12  992.6  -1.5  742  307    -7     
21 12.01.17 160 (Ю) 8{12}  20000 м  позёмок{ливн. осадки}  9/9 420 м 
[Sc]
-5 -5.6 96 -10  992.5  742  305           
00 13.01.17 170 (Ю) 6{12}  20000 м  позёмок{ливн. осадки}  10/6 360 м средняя 
[Sc|Ac und]
-5.5 -6.1 96 -10  992.7  0.1  742  306           
03 13.01.17 150 (ЮВ) 20000 м  позёмок  8/0 средняя 
[Ac trans]
-6.6 -7.1 96 -11  991.9  -0.8  742  307           
06 13.01.17 150 (ЮВ) 2000 м  слаб. ливневой снег  10/10 360 м кучево-дожд. 
[Cb cap]
-7.1 -7.9 94 -11  991.1  -0.8  741  307      0.7     
09 13.01.17 150 (ЮВ) 20000 м  {ливн. осадки}  9/9 840 м 
[Sc]
-7.3 -7.8 96 -12  991  741  308           
15 13.01.17 260 (З) 20000 м  позёмок  3/3 300 м 
[Sc]
-12.8 -15.7 79 -20  995.1  2.5  744  316           
18 13.01.17 250 (З) 6{12}  20000 м  позёмок  3/0 средняя 
[Ac trans]
-10.9 -13.1 84 -16  998.2  746  314    -6.4     
21 13.01.17 220 (ЮЗ) 20000 м  позёмок  3/0 средняя 
[Ac trans]
-13.3 -15.8 81 -19  1000.4  2.2  748  318           
00 14.01.17 210 (ЮЗ) 20000 м    3/0 средняя 
[Ac trans]
-11.7 -13.9 84 -14  1002.1  1.7  749  317           
03 14.01.17 150 (ЮВ) 20000 м    9/9 480 м 
[Sc]
-15.7 -16.8 91 -18  1003.4  1.3  750  322           
06 14.01.17 150 (ЮВ) 20000 м    ясно 
-12.8 -14.6 86 -18  1003.8  0.4  751  319           
09 14.01.17 030 (СВ) 20000 м    8/8 540 м 
[Sc]
-14.2 -16.2 85 -16  1004.5  0.8  751  321           
18 14.01.17 050 (СВ) 8{12}  20000 м  позёмок{снег}  10/4 300 м средняя 
[Sc|Ac und]
-6.7 -7.8 92 -12  1001.3  -1.4  749  310    -8.2     
03 15.01.17 130 (ЮВ) 20000 м  позёмок  10/10 360 м 
[Sc]
-5.2 -5.6 97 -10  998.5  -0.8  747  307           
06 15.01.17 170 (Ю) 20000 м    9/9 630 м 
[Sc]
-4.8 -5.2 97 -8  998.1  -0.4  746  307      0.8     
09 15.01.17 160 (Ю) 20000 м    9/9 720 м 
[Sc]
-4.8 -5.3 96 -8  999.1  747  307           
12 15.01.17 140 (ЮВ) 20000 м    8/8 360 м 
[Sc]
-5.9 -6.3 97 -8  999.6  0.5  748  309           
15 15.01.17 140 (ЮВ) 20000 м    9/9 400 м 
[Sc]
-6 -6.4 97 -9  999.3  -0.3  747  309           
09 16.01.17 300 (СЗ) 5{12}  20000 м  позёмок  9/9 600 м 
[Sc]
-5.6 -7.4 87 -10  1002.3  2.6  750  309           
Время (UTC), дата Ветер
(°,м/с) 
Видим.   Явления Облачность Т
(°С)
Тd
(°С)
f(%) Тe
(°С)
Pmin
(гПа)
dP
(гПа)
Po
(мм)
O2
(г/м3)
Тmin Tmax R s Состояние
почвы

Для получения пояснительной информации подведите курсор к названию столбца.

ПОГОДА Остров Хейса - архив

Всё, что Вы хотите узнать о погоде Остров Хейса - удобно и подробно!

Выберите нужную дату (начиная с 1 января 2015* года) и нажмите кнопку "Найти".
Будут отображены архивные сводки погоды по пункту Остров Хейса, начиная с указанной даты.


Отображать данные в формате CSV (для использования в таблицах Excel)


Внимание! Наш архив погоды предназначен исключительно для личного некоммерческого использования в познавательных целях. Если Вам необходимы официальные справки о состоянии погоды (для производственных, юридических, коммерческих и т.п. целей), обращайтесь в органы Росгидромета.

*Примечание: данная дата относится к архиву по метеостанциям СССР (Россия, СНГ, Балтия).
Архив по метеостанциям Зарубежной Европы и Азии (кроме Китая) хранится 10 дней, по другим регионам земного шара (Китай, Африка, Америка, Австралия, Океания) - 1 день.

Остров Хейса - район местоположения метеостанции


Название, широта, долгота, высота метеостанции:
Остров Хейса (Обсерватория Им.Кренкеля) 80.6°ш. 58.1°д. 22 м над ур. моря [Российская Федерация]

Дополнительная информация

В oтличие oт бoльшинства пoгoдных сайтoв мы публикуем пoдрoбную метеoинфoрмацию в детальнoм прoфессиoнальнoм фoрмате.

Характеристики температуры и влажнoсти вoздуха измеряются на высoте 2 м в тени вдали oт зданий и деревьев.
Скoрoсть ветра измеряется на высoте 10 м (на урoвне рoста челoвека скoрoсть ветра ниже в 1.5-2 раза). Если метеoстанция нахoдится в гoрoде или в лесу, тo скoрoсть ветра занижена на 2-4 м/с пo сравнению с oткрытым местoм. Скoрoсть ветра над акватoриями крупных рек и oзёр, а также на вершинах хoлмoв на 2-5 м/с выше, чем в oбычных услoвиях.
Атмoсфернoе давление в разных тoчках местнoсти мoжет значительнo oтличаться oт давления на метеoстанции, в зависимoсти oт услoвий рельефа (при пoдъёме на 10 м давление пoнижается примернo на 1 мм рт.ст.).